Regional Weather Roundup
Issued by NWS Boston, MA

Current Version | Previous Version | Text Only | Print | Product List | Glossary Off
Versions: 1 2 3 4 5 6 7 8 9 10 11 12 13 14 15 16 17 18 19 20 21 22 23 24 25 26 27
000 ASUS41 KBOX 251010 RWRBOX REGIONAL WEATHER ROUNDUP NATIONAL WEATHER SERVICE TAUNTON MA 600 AM EDT TUE JUL 25 2017 NOTE: "FAIR" INDICATES FEW OR NO CLOUDS BELOW 12,000 FEET WITH NO SIGNIFICANT WEATHER AND/OR OBSTRUCTIONS TO VISIBILITY. MAZALL-251100- EASTERN MASSACHUSETTS CITY SKY/WX TMP DP RH WIND PRES REMARKS BOSTON CLOUDY 56 55 97 N9 30.03R FOG BEVERLY CLOUDY 56 55 97 N8 30.03R LAWRENCE CLOUDY 58 54 86 N5 30.06R BEDFORD CLOUDY 56 53 90 N5 30.03R BLUE HILL N/A 55 53 93 N7 30.02R NORWOOD CLOUDY 57 57 100 N5 30.02R FOG MARSHFIELD CLOUDY 59 57 94 NE8G17 30.02R PLYMOUTH CLOUDY 58 56 93 N12 30.02R TAUNTON CLOUDY 58 56 93 N6 30.01R FOG NEW BEDFORD CLOUDY 59 56 89 N7 30.00R $$ MAZALL-251100- CAPE COD AND THE ISLANDS CITY SKY/WX TMP DP RH WIND PRES REMARKS FALMOUTH CLOUDY 57 57 100 NE8G15 30.01R HYANNIS CLOUDY 59 57 93 N9 29.99R CHATHAM CLOUDY 60 59 96 VRB3 30.00R PROVINCETOWN CLOUDY 58 56 93 N10 30.01R NANTUCKET CLOUDY 61 59 93 N14 29.99R MARTHAS VNYRD CLOUDY 60 57 89 NE8 29.99R $$ MAZALL-251100- CENTRAL AND WESTERN MASSACHUSETTS CITY SKY/WX TMP DP RH WIND PRES REMARKS WORCESTER CLOUDY 52 51 97 N8 30.04R FOG FITCHBURG CLOUDY 57 54 89 N5 30.06R ORANGE CLOUDY 55 54 96 N3 30.05R SPRINGFIELD CLOUDY 56 54 92 N7 30.03R WESTFIELD CLOUDY 56 55 97 N7 30.04R NORTH ADAMS CLOUDY 56 52 86 E7 30.05R PITTSFIELD CLOUDY 53 52 96 N3 30.04R $$ RIZALL-251100- RHODE ISLAND CITY SKY/WX TMP DP RH WIND PRES REMARKS PROVIDENCE CLOUDY 59 58 96 NE10 30.03R NEWPORT CLOUDY 59 58 96 N7 30.01R BLOCK ISLAND CLOUDY 60 57 89 N9 30.01R WESTERLY CLOUDY 60 56 86 N6 30.02R $$ CTZALL-251100- CONNECTICUT CITY SKY/WX TMP DP RH WIND PRES REMARKS BRADLEY INTL DRIZZLE 57 55 93 N5 30.04R HARTFORD CLOUDY 58 55 90 N7 30.03R BRIDGEPORT LGT RAIN 61 55 81 NE10 30.02R DANBURY CLOUDY 58 56 93 E6 30.04R GROTON CLOUDY 60 55 83 N6 30.01S NEW HAVEN CLOUDY 60 55 83 N7 30.03R CHESTER CLOUDY 57 55 94 N3 30.03R MERIDEN CLOUDY 58 55 90 N6 30.04R WILLIMANTIC CLOUDY 60 55 83 N3 30.04R OXFORD CLOUDY 55 52 88 NE5 30.04R FOG $$ MEZ002-015-021-024-NHZ003-005-008-011-012-014-VTZ005-008-251100- NORTHERN NEW ENGLAND CITY SKY/WX TMP DP RH WIND PRES REMARKS PORTLAND ME CLOUDY 56 53 90 N7 30.05R BANGOR ME MOCLDY 57 53 86 N10 30.06R CONCORD NH CLOUDY 56 54 93 N5 30.06R MANCHESTER NH CLOUDY 57 52 83 N5 30.04R NASHUA NH CLOUDY 56 55 97 NW3 30.06R PORTSMOUTH NH CLOUDY 57 53 89 N6 30.03R JAFFREY NH LGT RAIN 54 54 100 CALM 30.06R KEENE NH CLOUDY 55 54 96 CALM 30.06R BURLINGTON VT CLOUDY 57 54 89 E3 30.05R MT. WASHINGTON DRZL/FOG 43 43 100 N7 N/A VSB 3/16 $$ NYZ052-076-251100- EASTERN NEW YORK CITY SKY/WX TMP DP RH WIND PRES REMARKS ALBANY CLOUDY 58 54 86 S3 30.03R NEW YORK CITY CLOUDY 62 60 93 NE7 30.01R $$ ANZALL-251100- MARINE OBSERVATIONS STATION/POSITION TIME TEMP WIND PRES VSBY WAVE AIR SEA DIR/SP/G HT/PER (UTC) (F) (DEG/KT/KT) (MB) (MI) (FT/S) BOSTON BUOY 0950 59 63 10/ 17/ 19 1016.3R 8/ 8 BUZZARDS BAY 0900 60 20/ 17/ 18 1015.2R NANTUCKET SOUND 0950 63 1015.0R 3/ 4 MASS BAY-STELLWA 0904 60 60 30/ 16/ 17 1015.1R 8/ 8 ISLE OF SHOALS 0900 58 20/ 14/ 16 1016.2R S OF BLOCK IS 0955 71 N/A 5/ 8 $$ ......................KEY......................... SKY/WX - SKY CONDITION/PRESENT WEATHER TMP - TEMPERATURE IN FAHRENHEIT DWPT - DEWPOINT IN FAHRENHEIT RH - RELATIVE HUMIDITY IN PERCENT WIND - DIRECTION AND SPEED IN MPH PRES - MEAN SEA LEVEL PRESSURE IN INCHES OF HG WCI - WIND CHILL INDEX VSB - VISIBILITY IN MILES HX - HEAT INDEX TC - TEMPERATURE IN CELSIUS VRB - VARIABLE WIND DIRECTION N/A - NOT AVAILABLE

USA.gov is the U.S. government's official web portal to all federal, state and local government web resources and services.